Showing default

HORACIO, 59098

Orbit data source: Space-Track

HORACIO, 59098 is a payload satellite owned by Satlantis (ES) in SSO that was launched on Mon, 04 Mar 2024 UTC via an FALCON 9 launch vehicle from the Air Force Western Test Range (AFWTR). Payload-class satellites include a variety of spacecraft equipped with specific instruments for various scientific and technological missions. These include communications satellites like Starlink; space stations such as the ISS; scientific satellites like the Hubble; Earth observation satellites from companies like Planet Labs, Umbra, and HawkEye 360; GPS; miniature CubeSats for education and research; and military/defense satellites.

Loading next visibility...
Identifier
59098, 2024-043A
Orbit
SSO
Last TLE update
8 hours ago
Origin
Manufacturer
NanoAvionics
Mission
Operational Commercial Imaging
Bus & Motor
CUBESAT 16U M16P, Unknown motor
Mass
~20 kg wet, ~20 kg dry
Launch date (UTC)
2024-03-04 (1 year ago)
Launch vehicle
FALCON 9
Launch site
Air Force Western Test Range (AFWTR)
Object type
Payload
Rocket body
Debris
Shape & HBR
Box, 0.4 m
Radar Cross Section
0.100 m², Medium (>0.1 m² and < 1m²)

Expand to show TLE details & history

TLE from 8 hours ago
0 HORACIO
1 59098U 24043A   25182.38885562  .00001446  00000-0  13358-3 0  9995
2 59098  97.8096 308.5236 0012598 109.8735 250.3845 14.96119466 72156
Epoch: 2025-07-01T09:19Z
TLE epoch observation values (Epoch: 2025-07-01T09:19:57.125Z)
Latitude
-0.00001°
Longitude
-111.14944°
Altitude
584.899 km
Speed
7.566 km/s
True Right ascension
20h 34m 05s
True Declination
0° 00' 00"
Sunlit
Object was in full shadow at epoch
Visualization orbit readout
Latitude
51.28122°
Longitude
-120.60274°
Altitude
582.386 km
Speed
7.577 km/s
Apparent Right ascension
18h 30m 44s
Apparent Declination
8° 44' 24"
Sunlit
Object is in daylight
Visualization observer readout
Local Sidereal Time
05:14:57
Azimuth
335.87° NNW
Elevation
-38.28°
Doppler factor
1
Orbital elements
Apogee altitude
584.676 km
Perigee altitude
567.155 km
Semi-major axis
6,954.053 km
Eccentricity
0.00126
Inclination
97.8096°
RAAN
308.5236°
Arg. of periapsis
109.8735°
True anomaly
Unknown
Mean anomaly
250.3845°
Eccentric anomaly
Unknown
Mean motion
3.74271 °/min
Orbital period
96.19 mins
BSTAR
0.00013358
Loading maneuver chart data...
Loading SW <> Apogee altitude chart data...
Loading historical data...
Loading historical data...
Loading historical data...
Loading historical data...
Loading historical data...
Loading historical data...
Loading historical data...

HORACIO Visibility forecast

Observer location: undefined°, undefined°

Span
Click to sort rows by Start time (UTC) header in descending order
Start Az.
Max El. time (UTC)
Max El. Az.
Max El.
End time (UTC)
End Az.
7 mins2025-07-01 21:08:19.758Z20.264° NNE2025-07-01 21:11:19.758Z84.172° E42.351°2025-07-01 21:15:19.758Z184.172° SSW
5 mins2025-07-02 07:57:19.758Z126.943° SE2025-07-02 07:59:19.758Z76.679° E31.806°2025-07-02 08:02:19.758Z9.563° NNE
|